Location: Builderbug Observatory
(40.4552°N, 111.7868°W)
Time: 06:06:23
(UTC-06:00)

OTV 5 (USA 277) - Visible Passes

Search period start: 25 June 2018 00:00
Search period end: 05 July 2018 00:00
Orbit: 313 x 320 km, 54.5° (Epoch: 21 June)

Date Brightness Start Highest point End Pass type
(mag) Time Alt. Az. Time Alt. Az. Time Alt. Az.
26 Jun ? 00:12:52 10° N 00:14:14 13° NNE 00:14:14 13° NNE visible
27 Jun ? 00:26:37 10° NNW 00:27:38 17° N 00:27:38 17° N visible
27 Jun ? 23:08:27 10° NNE 23:08:42 10° NNE 23:08:57 10° NNE visible
28 Jun ? 00:40:46 10° NW 00:41:05 13° NW 00:41:05 13° NW visible
28 Jun ? 23:21:27 10° NNW 23:23:25 18° NNE 23:23:45 18° NE visible
29 Jun ? 23:35:25 10° NW 23:37:18 32° N 23:37:18 32° N visible
30 Jun ? 22:16:26 10° N 22:17:51 13° NNE 22:19:14 10° ENE visible
30 Jun ? 23:49:44 10° NW 23:50:54 22° WNW 23:50:54 22° WNW visible
01 Jul ? 22:30:10 10° NNW 22:32:30 25° NE 22:33:42 18° ENE visible
02 Jul ? 22:44:18 10° NW 22:47:00 68° NE 22:47:25 55° E visible
03 Jul ? 22:58:51 10° WNW 23:01:10 34° WSW 23:01:10 34° WSW visible
04 Jul ? 21:38:58 10° NW 21:41:32 38° NE 21:44:05 10° ESE visible
04 Jul ? 23:14:20 10° W 23:15:00 12° WSW 23:15:00 12° WSW visible
